Location: Recife
(8.0585°S, 34.8848°W)
Time: 12:41:17
(UTC-03:00)

Injun/Solrad 3 - Pass Details

Date: 14 April 2026
Orbit: 868 x 988 km, 66.8° (Epoch: 12 May)

Event Time Altitude Azimuth Distance (km) Brightness Sun altitude
Rises 09:34:57 0° 314° (NW) 3,681 11.0 58.5°
Reaches altitude 10° 09:38:01 10° 301° (WNW) 2,732 10.3 59.1°
Maximum altitude 09:43:05 25° 248° (WSW) 1,872 9.5 60.2°
Drops below altitude 10° 09:48:07 10° 195° (SSW) 2,705 10.2 61.2°
Sets 09:51:10 0° 182° (S) 3,636 10.8 61.8°
